CHINASAT 16 (SJ-13)

Last updated on Jan. 15, 2021, 6:31 a.m. UTC

1 42662U 17018A   21014.97514769 -.00000359  00000-0  00000+0 0  9990
2 42662   0.0184  54.0342 0006116 185.8703 336.2618  1.00269674 13894
UTC
Height (km)
Latitude
Longitude
Inclination
Orbital Period
UTC large
Height (km)
Speed (km/s)
/
Latitude / Longitude
Inclination (degrees)
Orbital Period (minutes)
Azimuth
Elevation
Range (km)
Doppler Factor
iOS Compass Heading
iOS Angle

Next 30 passes for location: Hong Kong

Rise time Rise Azimuth (degrees) Set time Set Azimuth (degrees) Duration Max altitude (degrees)

No matching passes for this satellites